User: anonymous   Login
Location: Nitra
(0.0000°N, 18.0833°E)
Time: 22:06:48
(UTC+02:00)
Language:

Meteor 2-21 Rocket - Orbit

View from above orbital plane
View from above orbital plane
View from above satellite
View from above satellite

Ground track
Ground track

The orbit data is extracted from the following two-line orbital elements,

1 22784U 93055C   21104.55881443  .00000037  00000-0  20183-4 0  9999
2 22784  82.5537 358.4406 0023142 119.3457 288.5628 13.83441147394446
Epoch (UTC): 14 April 2021 13:24:41
Eccentricity: 0.0023142
inclination: 82.5537°
perigee height: 935 km
apogee height: 968 km
right ascension of ascending node: 358.4406°
argument of perigee: 119.3457°
revolutions per day: 13.83441147
mean anomaly at epoch: 288.5628°
orbit number at epoch: 39444

The dashed part of the orbit path shows where the satellite is in the earth's shadow,  

DLR